^^

Weather Underground History

Daily Summary for February 25, 2018 Units:  Metric    English   Both
Daily Weekly Monthly Yearly
  High: Low: Average:
Temperature: 8 °C 2 °C 4.6 °C
Dew Point: 4 °C 1 °C 2.8 °C
Humidity: 93% 78% 88%
Wind Speed: 26km/h 0km/h 8.1km/h
Wind Gust: 39km/h - -
Wind- - SSW
Pressure: 1007.1 hPa 1001.7 hPa -
Precipitation: 0.0 mm    
 
 
Tabular Data for February 25, 2018
Time Temperature Dew Point Pressure Wind Wind Speed Wind Gust Humidity Rainfall Rate (Hourly) solar
00:01 4 °C 2 °C 1002.0 hPa SW 16 km/h 18 km/h 90% 0.0 mm 0 W/m2
00:06 4 °C 2 °C 1002.0 hPa SSW 10 km/h 13 km/h 90% 0.0 mm 0 W/m2
00:11 4 °C 2 °C 1002.0 hPa SW 8 km/h 11 km/h 91% 0.0 mm 0 W/m2
00:16 4 °C 2 °C 1002.4 hPa SW 8 km/h 14 km/h 91% 0.0 mm 0 W/m2
00:21 4 °C 3 °C 1002.0 hPa SSW 11 km/h 16 km/h 91% 0.0 mm 0 W/m2
00:26 4 °C 3 °C 1002.4 hPa SW 5 km/h 13 km/h 91% 0.0 mm 0 W/m2
00:31 4 °C 2 °C 1002.0 hPa SSW 6 km/h 11 km/h 90% 0.0 mm 0 W/m2
00:36 4 °C 2 °C 1002.0 hPa South 6 km/h 11 km/h 91% 0.0 mm 0 W/m2
00:41 4 °C 2 °C 1002.0 hPa South 5 km/h 6 km/h 90% 0.0 mm 0 W/m2
00:46 4 °C 2 °C 1002.4 hPa South 6 km/h 11 km/h 91% 0.0 mm 0 W/m2
00:51 4 °C 2 °C 1002.4 hPa SW 8 km/h 13 km/h 91% 0.0 mm 0 W/m2
00:56 4 °C 2 °C 1002.0 hPa South 10 km/h 10 km/h 91% 0.0 mm 0 W/m2
01:01 4 °C 2 °C 1002.4 hPa SSW 5 km/h 11 km/h 91% 0.0 mm 0 W/m2
01:06 4 °C 2 °C 1002.0 hPa SW 8 km/h 10 km/h 91% 0.0 mm 0 W/m2
01:11 4 °C 2 °C 1002.0 hPa SW 8 km/h 11 km/h 91% 0.0 mm 0 W/m2
01:16 4 °C 2 °C 1002.0 hPa SSW 11 km/h 18 km/h 91% 0.0 mm 0 W/m2
01:21 4 °C 2 °C 1002.0 hPa SW 6 km/h 14 km/h 91% 0.0 mm 0 W/m2
01:26 4 °C 2 °C 1002.0 hPa SSW 3 km/h 13 km/h 91% 0.0 mm 0 W/m2
01:31 4 °C 2 °C 1002.0 hPa WSW 3 km/h 16 km/h 91% 0.0 mm 0 W/m2
01:36 4 °C 2 °C 1002.0 hPa SW 6 km/h 14 km/h 91% 0.0 mm 0 W/m2
01:41 4 °C 2 °C 1002.4 hPa SSW 8 km/h 16 km/h 91% 0.0 mm 0 W/m2
01:46 4 °C 2 °C 1002.4 hPa SSW 5 km/h 10 km/h 91% 0.0 mm 0 W/m2
01:51 4 °C 2 °C 1002.4 hPa South 6 km/h 14 km/h 91% 0.0 mm 0 W/m2
01:56 4 °C 2 °C 1002.0 hPa South 8 km/h 16 km/h 91% 0.0 mm 0 W/m2
02:01 4 °C 2 °C 1002.0 hPa South 11 km/h 16 km/h 91% 0.0 mm 0 W/m2
02:06 4 °C 2 °C 1002.0 hPa SSW 5 km/h 21 km/h 91% 0.0 mm 0 W/m2
02:11 4 °C 2 °C 1002.4 hPa South 6 km/h 16 km/h 91% 0.0 mm 0 W/m2
02:16 4 °C 3 °C 1002.4 hPa SSW 5 km/h 14 km/h 91% 0.0 mm 0 W/m2
02:21 4 °C 3 °C 1002.4 hPa SW 14 km/h 16 km/h 91% 0.0 mm 0 W/m2
02:26 4 °C 3 °C 1002.4 hPa SSW 16 km/h 19 km/h 91% 0.0 mm 0 W/m2
02:31 4 °C 3 °C 1002.4 hPa SSW 16 km/h 16 km/h 91% 0.0 mm 0 W/m2
02:36 4 °C 3 °C 1002.4 hPa SW 11 km/h 16 km/h 91% 0.0 mm 0 W/m2
02:41 4 °C 3 °C 1002.4 hPa SSW 13 km/h 21 km/h 91% 0.0 mm 0 W/m2
02:46 4 °C 3 °C 1002.4 hPa SW 14 km/h 16 km/h 91% 0.0 mm 0 W/m2
02:51 4 °C 3 °C 1002.4 hPa SW 16 km/h 18 km/h 91% 0.0 mm 0 W/m2
02:56 4 °C 3 °C 1002.0 hPa SW 13 km/h 18 km/h 91% 0.0 mm 0 W/m2
03:01 4 °C 3 °C 1002.0 hPa WSW 6 km/h 13 km/h 91% 0.0 mm 0 W/m2
03:06 4 °C 3 °C 1002.0 hPa SW 10 km/h 19 km/h 91% 0.0 mm 0 W/m2
03:11 4 °C 3 °C 1002.0 hPa SW 6 km/h 18 km/h 91% 0.0 mm 0 W/m2
03:16 4 °C 3 °C 1002.4 hPa SW 11 km/h 14 km/h 91% 0.0 mm 0 W/m2
03:21 4 °C 3 °C 1002.4 hPa WSW 10 km/h 16 km/h 91% 0.0 mm 0 W/m2
03:26 4 °C 3 °C 1002.4 hPa SW 11 km/h 13 km/h 91% 0.0 mm 0 W/m2
03:31 4 °C 3 °C 1002.4 hPa SW 8 km/h 10 km/h 91% 0.0 mm 0 W/m2
03:36 4 °C 3 °C 1002.4 hPa SW 5 km/h 11 km/h 91% 0.0 mm 0 W/m2
03:41 4 °C 3 °C 1002.4 hPa South 14 km/h 14 km/h 91% 0.0 mm 0 W/m2
03:46 4 °C 3 °C 1002.4 hPa SW 11 km/h 14 km/h 91% 0.0 mm 0 W/m2
03:51 4 °C 3 °C 1002.4 hPa WSW 8 km/h 10 km/h 91% 0.0 mm 0 W/m2
03:56 4 °C 3 °C 1002.4 hPa SW 8 km/h 13 km/h 92% 0.0 mm 0 W/m2
04:01 4 °C 3 °C 1002.0 hPa SSW 8 km/h 16 km/h 92% 0.0 mm 0 W/m2
04:06 4 °C 3 °C 1002.0 hPa SSW 6 km/h 13 km/h 92% 0.0 mm 0 W/m2
04:11 4 °C 3 °C 1002.4 hPa WSW 10 km/h 16 km/h 92% 0.0 mm 0 W/m2
04:16 4 °C 3 °C 1002.4 hPa SSW 13 km/h 14 km/h 92% 0.0 mm 0 W/m2
04:21 4 °C 3 °C 1002.4 hPa SSW 11 km/h 13 km/h 92% 0.0 mm 0 W/m2
04:26 4 °C 3 °C 1002.0 hPa SSW 8 km/h 16 km/h 92% 0.0 mm 0 W/m2
04:31 4 °C 3 °C 1002.0 hPa SSW 6 km/h 13 km/h 92% 0.0 mm 0 W/m2
04:36 4 °C 3 °C 1002.0 hPa WSW 13 km/h 24 km/h 92% 0.0 mm 0 W/m2
04:41 4 °C 3 °C 1002.0 hPa SSW 8 km/h 16 km/h 92% 0.0 mm 0 W/m2
04:46 4 °C 3 °C 1002.0 hPa SW 13 km/h 21 km/h 92% 0.0 mm 0 W/m2
04:51 4 °C 3 °C 1002.0 hPa SW 6 km/h 16 km/h 92% 0.0 mm 0 W/m2
04:56 4 °C 3 °C 1002.4 hPa SW 5 km/h 18 km/h 91% 0.0 mm 0 W/m2
05:01 4 °C 3 °C 1002.4 hPa SW 6 km/h 18 km/h 91% 0.0 mm 0 W/m2
05:06 4 °C 3 °C 1002.4 hPa SW 5 km/h 21 km/h 91% 0.0 mm 0 W/m2
05:11 4 °C 3 °C 1002.4 hPa SW 8 km/h 11 km/h 91% 0.0 mm 0 W/m2
05:16 4 °C 3 °C 1002.4 hPa SW 10 km/h 13 km/h 91% 0.0 mm 0 W/m2
05:21 4 °C 3 °C 1002.4 hPa SSW 6 km/h 11 km/h 91% 0.0 mm 0 W/m2
05:26 4 °C 3 °C 1002.4 hPa SSW 6 km/h 11 km/h 91% 0.0 mm 0 W/m2
05:31 4 °C 3 °C 1002.4 hPa SSW 6 km/h 14 km/h 91% 0.0 mm 0 W/m2
05:36 4 °C 3 °C 1002.4 hPa SSW 6 km/h 16 km/h 91% 0.0 mm 0 W/m2
05:41 4 °C 3 °C 1002.4 hPa SW 8 km/h 14 km/h 91% 0.0 mm 0 W/m2
05:46 4 °C 3 °C 1002.4 hPa SW 8 km/h 14 km/h 91% 0.0 mm 0 W/m2
05:51 4 °C 3 °C 1002.4 hPa SW 3 km/h 10 km/h 91% 0.0 mm 0 W/m2
05:56 4 °C 3 °C 1002.4 hPa SW 6 km/h 18 km/h 91% 0.0 mm 0 W/m2
06:01 4 °C 3 °C 1002.4 hPa SSW 5 km/h 16 km/h 91% 0.0 mm 0 W/m2
06:06 4 °C 3 °C 1002.4 hPa SSW 8 km/h 16 km/h 91% 0.0 mm 0 W/m2
06:11 4 °C 3 °C 1002.0 hPa SW 10 km/h 16 km/h 92% 0.0 mm 0 W/m2
06:16 4 °C 3 °C 1002.0 hPa SW 5 km/h 8 km/h 92% 0.0 mm 0 W/m2
06:21 4 °C 3 °C 1002.4 hPa SW 5 km/h 14 km/h 92% 0.0 mm 0 W/m2
06:26 4 °C 3 °C 1002.4 hPa SSW 6 km/h 10 km/h 92% 0.0 mm 0 W/m2
06:31 4 °C 3 °C 1002.4 hPa SSW 8 km/h 14 km/h 92% 0.0 mm 0 W/m2
06:36 4 °C 3 °C 1002.4 hPa SW 8 km/h 19 km/h 92% 0.0 mm 0 W/m2
06:41 4 °C 3 °C 1002.7 hPa SW 6 km/h 13 km/h 91% 0.0 mm 0 W/m2
06:46 4 °C 3 °C 1002.7 hPa SSW 5 km/h 8 km/h 91% 0.0 mm 0 W/m2
06:51 4 °C 3 °C 1002.7 hPa SSW 8 km/h 13 km/h 91% 0.0 mm 0 W/m2
06:56 4 °C 3 °C 1002.7 hPa SW 8 km/h 16 km/h 91% 0.0 mm 0 W/m2
07:01 4 °C 3 °C 1002.7 hPa SSW 5 km/h 13 km/h 91% 0.0 mm 0 W/m2
07:06 4 °C 3 °C 1002.7 hPa SW 10 km/h 13 km/h 91% 0.0 mm 0 W/m2
07:11 4 °C 3 °C 1002.7 hPa SSW 8 km/h 11 km/h 91% 0.0 mm 0 W/m2
07:16 4 °C 3 °C 1002.7 hPa SW 5 km/h 14 km/h 91% 0.0 mm 0 W/m2
07:21 4 °C 3 °C 1002.7 hPa South 8 km/h 16 km/h 91% 0.0 mm 0 W/m2
07:26 4 °C 2 °C 1002.7 hPa SSW 8 km/h 8 km/h 90% 0.0 mm 0 W/m2
07:31 4 °C 2 °C 1002.7 hPa SW 8 km/h 13 km/h 90% 0.0 mm 0 W/m2
07:36 4 °C 2 °C 1002.7 hPa SSW 6 km/h 10 km/h 90% 0.0 mm 0 W/m2
07:41 4 °C 2 °C 1002.7 hPa SSW 5 km/h 16 km/h 90% 0.0 mm 0 W/m2
07:46 4 °C 2 °C 1002.7 hPa SSW 5 km/h 11 km/h 90% 0.0 mm 0 W/m2
07:51 3 °C 2 °C 1002.7 hPa SSW 3 km/h 13 km/h 90% 0.0 mm 0 W/m2
07:56 3 °C 2 °C 1002.7 hPa SW 10 km/h 14 km/h 90% 0.0 mm 0 W/m2
08:01 3 °C 2 °C 1002.7 hPa SW 8 km/h 18 km/h 90% 0.0 mm 0 W/m2
08:06 3 °C 2 °C 1002.7 hPa SW 14 km/h 14 km/h 90% 0.0 mm 5 W/m2
08:11 3 °C 2 °C 1002.7 hPa SW 6 km/h 10 km/h 90% 0.0 mm 9 W/m2
08:16 3 °C 2 °C 1002.7 hPa SSW 14 km/h 16 km/h 90% 0.0 mm 11 W/m2
08:21 3 °C 2 °C 1002.7 hPa SSW 6 km/h 13 km/h 90% 0.0 mm 14 W/m2
08:26 3 °C 2 °C 1002.7 hPa SSW 18 km/h 18 km/h 91% 0.0 mm 16 W/m2
08:31 3 °C 2 °C 1002.7 hPa SW 13 km/h 19 km/h 91% 0.0 mm 19 W/m2
08:36 3 °C 2 °C 1002.7 hPa SW 8 km/h 23 km/h 91% 0.0 mm 30 W/m2
08:41 3 °C 2 °C 1003.0 hPa SW 10 km/h 14 km/h 91% 0.0 mm 37 W/m2
08:46 3 °C 2 °C 1002.7 hPa WSW 13 km/h 16 km/h 91% 0.0 mm 42 W/m2
08:51 3 °C 2 °C 1003.0 hPa SW 13 km/h 13 km/h 91% 0.0 mm 51 W/m2
08:57 3 °C 2 °C 1003.0 hPa SSW 8 km/h 14 km/h 91% 0.0 mm 62 W/m2
09:02 3 °C 2 °C 1003.0 hPa SSW 11 km/h 16 km/h 90% 0.0 mm 69 W/m2
09:07 4 °C 2 °C 1003.0 hPa WSW 8 km/h 16 km/h 90% 0.0 mm 77 W/m2
09:12 4 °C 2 °C 1002.7 hPa SW 10 km/h 11 km/h 90% 0.0 mm 84 W/m2
09:17 4 °C 2 °C 1002.7 hPa SSW 10 km/h 19 km/h 90% 0.0 mm 97 W/m2
09:22 4 °C 2 °C 1002.7 hPa SSW 6 km/h 16 km/h 90% 0.0 mm 105 W/m2
09:27 4 °C 2 °C 1002.7 hPa SSW 14 km/h 14 km/h 90% 0.0 mm 114 W/m2
09:32 4 °C 3 °C 1003.0 hPa SSW 10 km/h 11 km/h 90% 0.0 mm 125 W/m2
09:37 4 °C 3 °C 1003.0 hPa SSW 11 km/h 14 km/h 90% 0.0 mm 134 W/m2
09:42 4 °C 3 °C 1003.0 hPa SSW 6 km/h 14 km/h 90% 0.0 mm 141 W/m2
09:47 4 °C 3 °C 1003.0 hPa SSW 11 km/h 24 km/h 90% 0.0 mm 151 W/m2
09:52 4 °C 3 °C 1003.4 hPa WSW 13 km/h 19 km/h 90% 0.0 mm 162 W/m2
09:57 4 °C 3 °C 1003.4 hPa SW 10 km/h 11 km/h 89% 0.0 mm 174 W/m2
10:02 4 °C 3 °C 1003.4 hPa SW 10 km/h 16 km/h 89% 0.0 mm 181 W/m2
10:07 5 °C 3 °C 1003.4 hPa SW 11 km/h 16 km/h 89% 0.0 mm 193 W/m2
10:12 5 °C 3 °C 1003.4 hPa SW 8 km/h 16 km/h 88% 0.0 mm 202 W/m2
10:17 5 °C 3 °C 1003.4 hPa WSW 13 km/h 13 km/h 88% 0.0 mm 209 W/m2
10:22 5 °C 3 °C 1003.4 hPa SW 11 km/h 16 km/h 87% 0.0 mm 199 W/m2
10:27 5 °C 3 °C 1003.4 hPa SSW 13 km/h 19 km/h 87% 0.0 mm 72 W/m2
10:32 5 °C 3 °C 1003.4 hPa SSW 14 km/h 23 km/h 86% 0.0 mm 79 W/m2
10:37 5 °C 3 °C 1003.4 hPa SW 14 km/h 16 km/h 86% 0.0 mm 100 W/m2
10:42 5 °C 3 °C 1003.0 hPa SW 10 km/h 18 km/h 87% 0.0 mm 209 W/m2
10:47 5 °C 3 °C 1003.0 hPa South 16 km/h 21 km/h 87% 0.0 mm 58 W/m2
10:52 5 °C 3 °C 1003.0 hPa WSW 11 km/h 13 km/h 86% 0.0 mm 83 W/m2
10:57 5 °C 3 °C 1003.0 hPa SW 21 km/h 21 km/h 86% 0.0 mm 62 W/m2
11:02 5 °C 3 °C 1003.0 hPa South 11 km/h 14 km/h 87% 0.0 mm 220 W/m2
11:07 5 °C 3 °C 1003.4 hPa SSW 10 km/h 16 km/h 88% 0.0 mm 283 W/m2
11:12 6 °C 3 °C 1003.0 hPa SSW 10 km/h 19 km/h 87% 0.0 mm 290 W/m2
11:17 6 °C 4 °C 1003.0 hPa SSW 13 km/h 26 km/h 87% 0.0 mm 292 W/m2
11:22 6 °C 4 °C 1003.0 hPa WSW 18 km/h 21 km/h 87% 0.0 mm 292 W/m2
11:27 6 °C 4 °C 1003.0 hPa South 8 km/h 21 km/h 86% 0.0 mm 297 W/m2
11:32 6 °C 4 °C 1003.0 hPa SW 10 km/h 19 km/h 86% 0.0 mm 309 W/m2
11:37 6 °C 4 °C 1003.0 hPa SW 23 km/h 27 km/h 86% 0.0 mm 341 W/m2
11:42 6 °C 4 °C 1003.0 hPa SW 13 km/h 14 km/h 85% 0.0 mm 141 W/m2
11:47 6 °C 4 °C 1003.0 hPa SSE 26 km/h 26 km/h 85% 0.0 mm 336 W/m2
11:52 7 °C 4 °C 1002.7 hPa WSW 14 km/h 19 km/h 85% 0.0 mm 148 W/m2
11:57 7 °C 4 °C 1002.7 hPa South 11 km/h 23 km/h 84% 0.0 mm 371 W/m2
12:02 7 °C 4 °C 1002.7 hPa SW 18 km/h 24 km/h 83% 0.0 mm 70 W/m2
12:07 6 °C 4 °C 1002.7 hPa SW 11 km/h 27 km/h 83% 0.0 mm 97 W/m2
12:12 6 °C 4 °C 1002.7 hPa WSW 23 km/h 23 km/h 84% 0.0 mm 186 W/m2
12:17 7 °C 4 °C 1002.7 hPa SSW 14 km/h 21 km/h 83% 0.0 mm 146 W/m2
12:22 7 °C 4 °C 1002.7 hPa SW 13 km/h 29 km/h 84% 0.0 mm 353 W/m2
12:27 7 °C 4 °C 1002.7 hPa SW 18 km/h 24 km/h 83% 0.0 mm 332 W/m2
12:32 7 °C 4 °C 1002.7 hPa SSE 10 km/h 13 km/h 82% 0.0 mm 123 W/m2
12:37 7 °C 4 °C 1002.7 hPa SSW 14 km/h 21 km/h 81% 0.0 mm 158 W/m2
12:42 7 °C 4 °C 1002.7 hPa SSW 10 km/h 21 km/h 81% 0.0 mm 139 W/m2
12:47 7 °C 4 °C 1002.7 hPa SW 10 km/h 24 km/h 81% 0.0 mm 151 W/m2
12:52 7 °C 4 °C 1002.7 hPa SSW 13 km/h 16 km/h 81% 0.0 mm 429 W/m2
12:57 7 °C 4 °C 1002.7 hPa SW 11 km/h 18 km/h 80% 0.0 mm 111 W/m2
13:02 7 °C 4 °C 1002.7 hPa SSW 10 km/h 24 km/h 80% 0.0 mm 186 W/m2
13:07 7 °C 4 °C 1002.7 hPa SSW 6 km/h 14 km/h 81% 0.0 mm 332 W/m2
13:12 7 °C 4 °C 1002.4 hPa SSW 11 km/h 14 km/h 82% 0.0 mm 320 W/m2
13:17 7 °C 4 °C 1002.4 hPa South 24 km/h 24 km/h 80% 0.0 mm 323 W/m2
13:22 7 °C 4 °C 1002.4 hPa South 19 km/h 26 km/h 79% 0.0 mm 190 W/m2
13:27 7 °C 4 °C 1002.4 hPa SW 14 km/h 23 km/h 80% 0.0 mm 105 W/m2
13:32 7 °C 4 °C 1002.4 hPa SW 8 km/h 21 km/h 80% 0.0 mm 86 W/m2
13:37 7 °C 4 °C 1002.4 hPa South 23 km/h 23 km/h 81% 0.0 mm 83 W/m2
13:42 7 °C 4 °C 1002.4 hPa SW 8 km/h 16 km/h 82% 0.0 mm 88 W/m2
13:47 7 °C 4 °C 1002.0 hPa WSW 11 km/h 27 km/h 82% 0.0 mm 63 W/m2
13:52 7 °C 4 °C 1002.0 hPa South 11 km/h 21 km/h 81% 0.0 mm 69 W/m2
13:57 7 °C 4 °C 1002.0 hPa SSW 8 km/h 18 km/h 81% 0.0 mm 102 W/m2
14:02 7 °C 4 °C 1001.7 hPa SSW 6 km/h 18 km/h 81% 0.0 mm 253 W/m2
14:07 7 °C 4 °C 1001.7 hPa SSW 11 km/h 19 km/h 81% 0.0 mm 146 W/m2
14:12 7 °C 4 °C 1001.7 hPa SSW 11 km/h 14 km/h 82% 0.0 mm 325 W/m2
14:17 7 °C 4 °C 1002.0 hPa SW 18 km/h 27 km/h 80% 0.0 mm 304 W/m2
14:22 8 °C 4 °C 1001.7 hPa South 13 km/h 23 km/h 79% 0.0 mm 288 W/m2
14:27 8 °C 4 °C 1001.7 hPa SSW 10 km/h 26 km/h 78% 0.0 mm 128 W/m2
14:32 7 °C 4 °C 1001.7 hPa South 16 km/h 16 km/h 79% 0.0 mm 98 W/m2
14:37 7 °C 4 °C 1001.7 hPa South 14 km/h 18 km/h 79% 0.0 mm 69 W/m2
14:42 7 °C 3 °C 1001.7 hPa SSW 3 km/h 13 km/h 78% 0.0 mm 65 W/m2
14:47 7 °C 3 °C 1001.7 hPa WSW 6 km/h 27 km/h 79% 0.0 mm 54 W/m2
14:52 7 °C 3 °C 1001.7 hPa SW 5 km/h 13 km/h 79% 0.0 mm 53 W/m2
14:57 7 °C 3 °C 1001.7 hPa SW 8 km/h 16 km/h 79% 0.0 mm 49 W/m2
15:02 7 °C 3 °C 1001.7 hPa South 6 km/h 23 km/h 80% 0.0 mm 56 W/m2
15:07 7 °C 3 °C 1001.7 hPa SW 14 km/h 21 km/h 80% 0.0 mm 72 W/m2
15:12 7 °C 4 °C 1001.7 hPa South 19 km/h 27 km/h 81% 0.0 mm 79 W/m2
15:17 7 °C 4 °C 1001.7 hPa SSW 6 km/h 21 km/h 81% 0.0 mm 70 W/m2
15:22 7 °C 3 °C 1001.7 hPa SSW 10 km/h 21 km/h 81% 0.0 mm 60 W/m2
15:27 7 °C 3 °C 1001.7 hPa SSW 8 km/h 23 km/h 81% 0.0 mm 37 W/m2
15:32 7 °C 4 °C 1001.7 hPa SSW 13 km/h 23 km/h 82% 0.0 mm 26 W/m2
15:37 7 °C 4 °C 1001.7 hPa South 11 km/h 18 km/h 82% 0.0 mm 16 W/m2
15:42 7 °C 4 °C 1001.7 hPa SSE 6 km/h 24 km/h 82% 0.0 mm 14 W/m2
15:47 7 °C 4 °C 1001.7 hPa South 13 km/h 23 km/h 82% 0.0 mm 14 W/m2
15:52 7 °C 4 °C 1002.0 hPa SSW 21 km/h 23 km/h 82% 0.0 mm 14 W/m2
15:57 7 °C 3 °C 1002.0 hPa SW 13 km/h 39 km/h 81% 0.0 mm 12 W/m2
16:03 7 °C 3 °C 1002.0 hPa SSW 17 km/h 39 km/h 80% 0.0 mm 9 W/m2
16:08 7 °C 3 °C 1002.0 hPa SW 21 km/h 39 km/h 80% 0.0 mm 7 W/m2
16:13 6 °C 3 °C 1002.0 hPa SSW 6 km/h 24 km/h 82% 0.0 mm 5 W/m2
16:18 6 °C 3 °C 1002.0 hPa SW 10 km/h 24 km/h 82% 0.0 mm 5 W/m2
16:23 6 °C 3 °C 1002.0 hPa SW 18 km/h 21 km/h 82% 0.0 mm 5 W/m2
16:28 6 °C 3 °C 1002.0 hPa SW 6 km/h 18 km/h 83% 0.0 mm 5 W/m2
16:33 6 °C 3 °C 1002.0 hPa South 6 km/h 16 km/h 83% 0.0 mm 0 W/m2
16:38 6 °C 3 °C 1002.4 hPa SW 11 km/h 19 km/h 83% 0.0 mm 0 W/m2
16:43 6 °C 3 °C 1002.4 hPa SSW 11 km/h 11 km/h 83% 0.0 mm 0 W/m2
16:48 6 °C 3 °C 1002.4 hPa SSW 10 km/h 18 km/h 84% 0.0 mm 0 W/m2
16:53 6 °C 3 °C 1002.4 hPa SSW 13 km/h 21 km/h 84% 0.0 mm 0 W/m2
16:58 6 °C 3 °C 1002.4 hPa SSW 8 km/h 21 km/h 84% 0.0 mm 0 W/m2
17:03 6 °C 3 °C 1002.4 hPa South 5 km/h 6 km/h 84% 0.0 mm 0 W/m2
17:08 6 °C 3 °C 1002.4 hPa SSW 8 km/h 23 km/h 85% 0.0 mm 0 W/m2
17:13 6 °C 3 °C 1002.4 hPa South 13 km/h 16 km/h 85% 0.0 mm 0 W/m2
17:18 5 °C 3 °C 1002.7 hPa SSW 8 km/h 21 km/h 86% 0.0 mm 0 W/m2
17:23 5 °C 3 °C 1002.7 hPa SSW 10 km/h 13 km/h 87% 0.0 mm 0 W/m2
17:28 5 °C 3 °C 1002.7 hPa SW 11 km/h 23 km/h 87% 0.0 mm 0 W/m2
17:33 5 °C 3 °C 1002.7 hPa SSW 6 km/h 21 km/h 88% 0.0 mm 0 W/m2
17:38 5 °C 3 °C 1002.7 hPa SSW 6 km/h 16 km/h 88% 0.0 mm 0 W/m2
17:43 5 °C 3 °C 1002.7 hPa SSW 10 km/h 19 km/h 88% 0.0 mm 0 W/m2
17:48 5 °C 3 °C 1002.7 hPa SSW 10 km/h 10 km/h 89% 0.0 mm 0 W/m2
17:53 5 °C 3 °C 1003.0 hPa SSW 10 km/h 14 km/h 89% 0.0 mm 0 W/m2
17:58 5 °C 3 °C 1003.0 hPa SSW 8 km/h 14 km/h 89% 0.0 mm 0 W/m2
18:03 5 °C 3 °C 1003.0 hPa SSW 3 km/h 13 km/h 89% 0.0 mm 0 W/m2
18:08 5 °C 3 °C 1003.0 hPa SSW 5 km/h 18 km/h 89% 0.0 mm 0 W/m2
18:13 5 °C 3 °C 1003.0 hPa South 6 km/h 11 km/h 89% 0.0 mm 0 W/m2
18:18 5 °C 3 °C 1003.4 hPa SW 8 km/h 11 km/h 89% 0.0 mm 0 W/m2
18:23 5 °C 3 °C 1003.4 hPa SSW 6 km/h 13 km/h 89% 0.0 mm 0 W/m2
18:28 5 °C 3 °C 1003.4 hPa SW 3 km/h 13 km/h 89% 0.0 mm 0 W/m2
18:33 5 °C 3 °C 1003.7 hPa SSW 6 km/h 13 km/h 89% 0.0 mm 0 W/m2
18:38 5 °C 3 °C 1003.7 hPa SW 8 km/h 8 km/h 89% 0.0 mm 0 W/m2
18:43 5 °C 3 °C 1003.7 hPa SW 5 km/h 10 km/h 89% 0.0 mm 0 W/m2
18:48 5 °C 3 °C 1003.7 hPa SSW 8 km/h 10 km/h 89% 0.0 mm 0 W/m2
18:53 5 °C 3 °C 1003.7 hPa SW 6 km/h 14 km/h 89% 0.0 mm 0 W/m2
18:58 5 °C 3 °C 1003.7 hPa WSW 5 km/h 13 km/h 89% 0.0 mm 0 W/m2
19:03 5 °C 3 °C 1003.7 hPa SSW 10 km/h 16 km/h 89% 0.0 mm 0 W/m2
19:08 4 °C 3 °C 1004.1 hPa SSW 8 km/h 11 km/h 89% 0.0 mm 0 W/m2
19:13 4 °C 3 °C 1003.7 hPa SW 5 km/h 10 km/h 89% 0.0 mm 0 W/m2
19:18 4 °C 3 °C 1003.7 hPa SSW 6 km/h 11 km/h 89% 0.0 mm 0 W/m2
19:23 4 °C 3 °C 1003.7 hPa SW 11 km/h 21 km/h 89% 0.0 mm 0 W/m2
19:28 4 °C 3 °C 1003.7 hPa SW 5 km/h 10 km/h 89% 0.0 mm 0 W/m2
19:33 4 °C 3 °C 1004.1 hPa SW 8 km/h 11 km/h 89% 0.0 mm 0 W/m2
19:38 4 °C 3 °C 1004.1 hPa SSW 5 km/h 8 km/h 89% 0.0 mm 0 W/m2
19:43 4 °C 3 °C 1004.1 hPa South 8 km/h 11 km/h 90% 0.0 mm 0 W/m2
19:48 4 °C 3 °C 1004.4 hPa Calm   5 km/h 90% 0.0 mm 0 W/m2
19:53 4 °C 3 °C 1004.4 hPa Calm   8 km/h 90% 0.0 mm 0 W/m2
19:58 4 °C 2 °C 1004.4 hPa Calm     90% 0.0 mm 0 W/m2
20:03 4 °C 2 °C 1004.7 hPa Calm     90% 0.0 mm 0 W/m2
20:08 4 °C 2 °C 1004.7 hPa Calm     90% 0.0 mm 0 W/m2
20:13 4 °C 2 °C 1004.7 hPa Calm     90% 0.0 mm 0 W/m2
20:18 4 °C 2 °C 1004.7 hPa Calm     90% 0.0 mm 0 W/m2
20:23 4 °C 2 °C 1004.7 hPa Calm     90% 0.0 mm 0 W/m2
20:28 4 °C 2 °C 1004.7 hPa Calm     90% 0.0 mm 0 W/m2
20:33 3 °C 2 °C 1004.7 hPa Calm     91% 0.0 mm 0 W/m2
20:38 3 °C 2 °C 1005.1 hPa Calm     91% 0.0 mm 0 W/m2
20:43 3 °C 2 °C 1005.1 hPa Calm     91% 0.0 mm 0 W/m2
20:48 3 °C 2 °C 1005.1 hPa Calm     91% 0.0 mm 0 W/m2
20:53 3 °C 2 °C 1005.1 hPa Calm     91% 0.0 mm 0 W/m2
20:58 3 °C 2 °C 1005.1 hPa Calm     91% 0.0 mm 0 W/m2
21:03 3 °C 2 °C 1004.7 hPa SSW 2 km/h 6 km/h 91% 0.0 mm 0 W/m2
21:08 3 °C 2 °C 1005.1 hPa SSW 2 km/h 8 km/h 91% 0.0 mm 0 W/m2
21:13 3 °C 2 °C 1005.1 hPa SSW 5 km/h 5 km/h 91% 0.0 mm 0 W/m2
21:18 3 °C 2 °C 1005.1 hPa Calm   5 km/h 91% 0.0 mm 0 W/m2
21:23 3 °C 2 °C 1005.4 hPa SSW 2 km/h 6 km/h 92% 0.0 mm 0 W/m2
21:28 3 °C 2 °C 1005.4 hPa Calm     92% 0.0 mm 0 W/m2
21:33 3 °C 2 °C 1005.4 hPa Calm     92% 0.0 mm 0 W/m2
21:38 3 °C 2 °C 1005.4 hPa Calm     92% 0.0 mm 0 W/m2
21:43 3 °C 2 °C 1005.4 hPa Calm     92% 0.0 mm 0 W/m2
21:48 3 °C 2 °C 1005.4 hPa Calm     92% 0.0 mm 0 W/m2
21:53 3 °C 2 °C 1005.4 hPa Calm   5 km/h 92% 0.0 mm 0 W/m2
21:58 3 °C 2 °C 1005.4 hPa SSW 3 km/h 5 km/h 92% 0.0 mm 0 W/m2
22:03 3 °C 2 °C 1005.4 hPa Calm   8 km/h 92% 0.0 mm 0 W/m2
22:08 3 °C 2 °C 1005.8 hPa Calm   8 km/h 92% 0.0 mm 0 W/m2
22:13 3 °C 2 °C 1005.8 hPa Calm     92% 0.0 mm 0 W/m2
22:18 3 °C 2 °C 1005.8 hPa Calm     92% 0.0 mm 0 W/m2
22:23 3 °C 2 °C 1005.8 hPa Calm     92% 0.0 mm 0 W/m2
22:28 3 °C 2 °C 1005.8 hPa Calm   5 km/h 92% 0.0 mm 0 W/m2
22:33 3 °C 2 °C 1006.1 hPa SSW 3 km/h 5 km/h 92% 0.0 mm 0 W/m2
22:38 3 °C 2 °C 1006.1 hPa Calm     92% 0.0 mm 0 W/m2
22:43 3 °C 2 °C 1006.1 hPa Calm     92% 0.0 mm 0 W/m2
22:48 3 °C 2 °C 1006.1 hPa Calm     92% 0.0 mm 0 W/m2
22:53 3 °C 2 °C 1006.1 hPa SSW 3 km/h 6 km/h 92% 0.0 mm 0 W/m2
22:58 3 °C 2 °C 1006.1 hPa SSW 5 km/h 5 km/h 93% 0.0 mm 0 W/m2
23:03 3 °C 2 °C 1006.4 hPa SSW 6 km/h 8 km/h 93% 0.0 mm 0 W/m2
23:08 3 °C 2 °C 1006.4 hPa Calm   5 km/h 92% 0.0 mm 0 W/m2
23:13 3 °C 2 °C 1006.4 hPa Calm   8 km/h 92% 0.0 mm 0 W/m2
23:18 2 °C 1 °C 1006.4 hPa Calm     92% 0.0 mm 0 W/m2
23:23 2 °C 1 °C 1006.4 hPa Calm     92% 0.0 mm 0 W/m2
23:28 2 °C 1 °C 1006.8 hPa Calm     93% 0.0 mm 0 W/m2
23:33 2 °C 1 °C 1006.8 hPa Calm     93% 0.0 mm 0 W/m2
23:38 2 °C 1 °C 1006.8 hPa Calm     92% 0.0 mm 0 W/m2
23:43 2 °C 1 °C 1006.8 hPa Calm     92% 0.0 mm 0 W/m2
23:48 2 °C 1 °C 1007.1 hPa Calm   3 km/h 92% 0.0 mm 0 W/m2
23:53 2 °C 1 °C 1007.1 hPa Calm   6 km/h 93% 0.0 mm 0 W/m2
23:58 2 °C 1 °C 1007.1 hPa SSW 3 km/h 6 km/h 93% 0.0 mm 0 W/m2
Compliments of Weather Underground - 4.25 mb